Waarnemingen

Advertentie
Mijn weer
Putbus, Duitsland (10093): temperatuur & dauwpunt: 18.08.2017 01:00:00 - 24.08.2017 01:00:00 (CEST)Putbus, Duitsland (10093): temperatuur 5cm & temperatuur -5cm: 18.08.2017 01:00:00 - 24.08.2017 01:00:00 (CEST)Putbus, Duitsland (10093): temperatuur -20cm & temperatuur -100cm: 18.08.2017 01:00:00 - 24.08.2017 01:00:00 (CEST)Putbus, Duitsland (10093): windsnelheid & windstoten: 18.08.2017 01:00:00 - 24.08.2017 01:00:00 (CEST)Putbus, Duitsland (10093): windrichting: 18.08.2017 01:00:00 - 24.08.2017 01:00:00 (CEST)Putbus, Duitsland (10093): luchtdruk: 18.08.2017 01:00:00 - 24.08.2017 01:00:00 (CEST)Putbus, Duitsland (10093): zicht: 18.08.2017 01:00:00 - 24.08.2017 01:00:00 (CEST)Putbus, Duitsland (10093): Zonneschijnduur: 18.08.2017 01:00:00 - 24.08.2017 01:00:00 (CEST)Putbus, Duitsland (10093): neerslag: 18.08.2017 01:00:00 - 24.08.2017 01:00:00 (CEST)
Datum & Tijd tt [°C] td [°C] tt 5cm [°C] tt -5cm [°C] tt -20cm [°C] tt -100cm [°C] ff [km/u] ff [kn] fx [km/u] fx [kn] dd ppp [hPa] vv [km] sd [min] rr [mm]
24.08.2017 01:00:00 10,5 9,4 8,2 13,9 17,6 16,4 3 2 6 3 W 1017,1 29 0 0,0
24.08.2017 00:00:00 11,3 10,0 9,4 14,6 18,0 16,4 4 2 6 3 WNW 1017,4 31 0 0,0
23.08.2017 23:00:00 11,8 10,7 8,7 15,5 18,5 16,4 4 2 6 3 NW 1017,4 26 0 0,0
23.08.2017 22:00:00 12,2 11,0 9,9 16,5 18,9 16,4 3 2 5 3 NNW 1017,7 25 0 0,0
23.08.2017 21:00:00 13,6 11,2 11,2 17,9 19,2 16,4 4 2 9 5 WNW 1017,7 24 0 0,0
23.08.2017 20:00:00 16,0 11,4 14,6 19,7 19,4 16,4 8 5 14 8 W 1017,6 51 57 0,0
23.08.2017 19:00:00 17,6 10,4 20,6 21,3 19,3 16,4 10 6 21 11 NW 1017,6 50 60 0,0
23.08.2017 18:00:00 18,4 10,0 23,3 22,4 19,1 16,4 14 7 27 14 NW 1017,6 35 58 0,0
23.08.2017 17:00:00 18,7 9,8 24,4 23,2 18,8 16,5 15 8 27 15 WNW 1017,8 30 57 0,0
23.08.2017 16:00:00 18,8 9,3 25,2 23,3 18,4 16,5 15 8 31 17 WNW 1018,0 23 60 0,0
23.08.2017 15:00:00 18,7 7,4 25,4 23,1 17,8 16,5 19 10 32 17 NW 1018,1 16 60 0,0
23.08.2017 14:00:00 18,9 8,9 25,2 22,8 17,2 16,5 18 10 35 19 NW 1018,3 19 59 0,0
23.08.2017 13:00:00 19,0 11,9 27,1 22,3 16,5 16,5 19 10 31 17 NW 1018,4 35 57 0,0
23.08.2017 12:00:00 19,1 10,3 26,6 20,7 15,9 16,5 20 11 31 17 WNW 1018,4 22 53 0,0
23.08.2017 11:00:00 18,6 13,1 23,1 18,7 15,4 16,5 16 9 27 15 W 1018,3 40 30 0,0
23.08.2017 10:00:00 18,2 13,4 25,2 17,4 15,1 16,5 8 4 17 9 NW 1018,2 41 53 0,0
23.08.2017 09:00:00 17,0 14,3 21,7 15,1 14,9 16,5 11 6 16 9 NW 1018,3 19 60 0,0
23.08.2017 08:00:00 14,6 13,7 14,9 13,0 15,0 16,5 9 5 12 6 W 1018,4 18 60 0,0
23.08.2017 07:00:00 12,8 12,2 11,4 12,4 15,2 16,5 8 5 11 6 WNW 1018,3 4,4 30 0,0
23.08.2017 06:00:00 12,2 11,6 9,9 12,5 15,4 16,5 8 5 12 7 WNW 1018,0 4,2 0 0,0
23.08.2017 05:00:00 12,6 11,9 11,1 12,9 15,6 16,5 9 5 15 8 WNW 1018,0 5 0 0,0
23.08.2017 04:00:00 13,8 12,9 11,6 13,2 15,9 16,5 11 6 14 8 WNW 1018,1 10 0 0,0
23.08.2017 03:00:00 13,7 12,4 11,8 13,4 16,1 16,5 11 6 17 9 WNW 1018,1 25 0 0,0
23.08.2017 02:00:00 14,1 12,6 12,1 13,7 16,3 16,5 12 6 19 11 WNW 1018,2 31 0 0,0
23.08.2017 01:00:00 14,1 12,4 12,1 14,0 16,6 16,6 14 7 19 10 WNW 1018,3 30 0 0,0
23.08.2017 00:00:00 13,8 12,2 12,4 14,3 16,9 16,6 16 9 20 11 W 1018,4 25 0 0,0
22.08.2017 23:00:00 13,8 11,7 12,2 14,7 17,2 16,6 16 9 24 13 W 1018,5 31 0 0,0
22.08.2017 22:00:00 13,7 11,6 12,1 15,4 17,5 16,6 16 9 20 11 W 1018,7 34 0 0,0
22.08.2017 21:00:00 14,0 11,6 12,1 16,2 17,7 16,6 11 6 22 12 W 1018,7 15 0 0,0
22.08.2017 20:00:00 15,5 11,5 14,2 17,6 17,8 16,6 16 9 31 17 W 1018,4 45 32 0,0
22.08.2017 19:00:00 16,9 11,5 19,1 19,2 17,6 16,6 19 10 30 16 W 1018,3 45 60 0,0
22.08.2017 18:00:00 17,6 10,8 21,9 19,9 17,4 16,6 19 11 36 19 WNW 1018,4 44 55 0,0
22.08.2017 17:00:00 17,2 11,2 20,4 19,6 17,1 16,6 22 12 35 19 WNW 1018,6 49 33 0,0
22.08.2017 16:00:00 17,2 11,2 21,2 19,2 16,8 16,6 23 12 34 19 WNW 1018,6 34 22 0,0
22.08.2017 15:00:00 17,0 11,6 20,0 18,1 16,6 16,6 21 11 35 19 WNW 1018,6 29 9 0,0
22.08.2017 14:00:00 16,0 11,4 17,5 17,4 16,5 16,6 18 10 35 19 WNW 1018,6 43 0 0,0
22.08.2017 13:00:00 15,5 11,2 17,0 17,1 16,3 16,6 22 12 34 19 W 1018,6 54 0 0,0
22.08.2017 12:00:00 15,4 11,1 17,4 17,0 16,2 16,6 14 8 35 19 WNW 1018,7 45 0 0,0
22.08.2017 11:00:00 15,8 10,7 18,0 16,6 16,0 16,6 19 11 34 18 WNW 1018,5 46 0 0,0
22.08.2017 10:00:00 15,2 10,2 16,6 15,9 15,9 16,6 21 11 35 19 NW 1018,3 38 6 0,0
22.08.2017 09:00:00 15,2 10,5 19,7 15,0 15,9 16,6 17 9 33 18 WNW 1018,0 37 4 0,0
22.08.2017 08:00:00 14,6 9,7 14,9 14,4 16,0 16,7 21 11 29 16 WNW 1018,2 56 0 0,0
22.08.2017 07:00:00 14,3 9,6 13,7 14,1 16,1 16,7 16 8 26 14 WNW 1018,2 51 0 0,0
22.08.2017 06:00:00 14,2 10,1 13,5 14,1 16,3 16,7 17 9 23 13 WNW 1018,1 44 0 0,0
22.08.2017 05:00:00 14,0 9,8 13,1 14,0 16,5 16,7 15 8 23 13 W 1018,2 50 0 0,0
22.08.2017 04:00:00 13,7 10,0 11,5 14,1 16,7 16,7 13 7 26 14 WNW 1018,3 43 0 0,0
22.08.2017 03:00:00 14,8 10,6 13,6 14,9 16,9 16,7 18 10 29 16 WNW 1018,3 39 0 0,0
22.08.2017 02:00:00 15,0 10,6 14,2 14,9 17,1 16,7 16 9 29 15 WNW 1018,1 43 0 0,0
22.08.2017 01:00:00 15,1 11,6 13,6 15,3 17,3 16,7 17 9 32 17 WNW 1018,1 38 0 0,0
22.08.2017 00:00:00 15,5 11,5 14,2 15,5 17,6 16,7 21 11 35 19 WNW 1018,3 37 0 0,0
21.08.2017 23:00:00 15,7 11,0 14,3 15,9 17,8 16,7 23 12 39 21 WNW 1018,2 40 0 0,0
21.08.2017 22:00:00 16,1 11,4 15,5 16,6 18,1 16,7 22 12 39 21 WNW 1018,3 42 0 0,0
21.08.2017 21:00:00 16,2 11,8 15,4 17,1 18,3 16,7 23 13 42 23 WNW 1018,0 40 0 0,0
21.08.2017 20:00:00 16,5 12,7 16,1 18,0 18,4 16,7 21 11 40 21 W 1017,5 38 0 0,0
21.08.2017 19:00:00 16,9 12,9 16,9 18,9 18,5 16,8 24 13 49 26 WNW 1017,2 34 0 0,0
21.08.2017 18:00:00 17,5 13,1 18,5 20,2 18,3 16,8 26 14 49 26 WNW 1017,1 34 23 0,0
21.08.2017 17:00:00 18,4 13,0 23,4 21,1 18,0 16,8 32 17 48 26 W 1016,6 38 37 0,0
21.08.2017 16:00:00 18,0 13,1 21,8 21,2 17,6 16,8 28 15 48 26 WNW 1016,5 35 36 0,0
21.08.2017 15:00:00 18,7 13,0 24,6 20,4 17,2 16,8 28 15 51 28 WNW 1016,4 28 31 0,0
21.08.2017 14:00:00 17,2 12,1 19,3 19,7 16,8 16,8 27 14 42 23 WNW 1016,5 39 20 0,0
21.08.2017 13:00:00 16,8 12,6 18,5 19,7 16,4 16,8 26 14 41 22 WNW 1016,4 36 21 0,0
21.08.2017 12:00:00 17,3 13,6 21,1 18,6 16,0 16,8 24 13 40 22 W 1016,2 38 28 0,0
21.08.2017 11:00:00 15,7 13,6 16,9 16,3 15,8 16,8 22 12 36 19 W 1016,0 36 8 0,1
21.08.2017 10:00:00 14,5 13,0 14,8 15,6 15,7 16,8 22 12 35 19 WZW 1016,0 13 4 0,6
21.08.2017 09:00:00 13,2 12,3 13,1 14,7 15,7 16,8 18 10 35 19 ZW 1016,1 3,9 8 2,1
21.08.2017 08:00:00 13,0 11,9 13,3 14,2 15,8 16,8 19 10 29 16 WZW 1016,0 14 4 0,8
21.08.2017 07:00:00 12,5 11,7 12,4 13,9 16,0 16,8 15 8 22 12 ZW 1016,2 9 0 8,6
21.08.2017 06:00:00 12,7 12,0 12,4 14,0 16,1 16,8 15 8 25 13 WZW 1016,4 2,7 0 2,8
21.08.2017 05:00:00 12,7 11,6 12,2 14,2 16,3 16,8 14 8 24 13 WZW 1016,6 13 0 0,4
21.08.2017 04:00:00 12,8 11,6 12,3 14,0 16,5 16,8 15 8 27 14 WZW 1016,9 16 0 0,0
21.08.2017 03:00:00 12,6 11,5 11,9 14,0 16,7 16,9 16 8 28 15 WZW 1016,9 15 0 0,0
21.08.2017 02:00:00 12,7 11,6 12,1 14,1 17,0 16,9 17 9 26 14 WZW 1017,0 18 0 0,1
21.08.2017 01:00:00 12,6 11,4 11,6 14,3 17,3 16,9 16 8 26 14 WZW 1017,2 26 0 0,0
21.08.2017 00:00:00 13,0 11,6 11,8 14,8 17,6 16,9 13 7 27 15 WZW 1017,3 29 0 0,0
20.08.2017 23:00:00 13,4 11,9 12,5 15,5 17,8 16,9 16 8 23 12 WZW 1017,5 29 0 0,0
20.08.2017 22:00:00 14,1 12,4 13,1 16,0 18,1 16,9 17 9 26 14 WZW 1017,5 30 0 0,0
20.08.2017 21:00:00 14,2 12,5 13,3 16,7 18,3 16,9 13 7 26 14 WZW 1017,4 18 0 0,0
20.08.2017 20:00:00 14,4 12,6 13,7 17,6 18,5 16,9 13 7 21 11 ZW 1017,1 31 3 0,0
20.08.2017 19:00:00 15,0 12,7 14,8 18,5 18,6 16,9 15 8 27 15 WZW 1017,1 36 23 0,0
20.08.2017 18:00:00 14,6 12,5 16,1 18,3 18,8 16,9 16 9 32 18 WZW 1017,2 28 2 1,0
20.08.2017 17:00:00 14,6 11,6 14,1 19,3 18,7 16,9 26 14 52 28 W 1017,5 10 0 0,0
20.08.2017 16:00:00 18,7 9,3 19,5 21,7 18,4 16,9 18 10 37 20 ZW 1016,7 51 31 0,0
20.08.2017 15:00:00 19,8 9,2 25,3 22,1 17,9 16,9 21 11 37 20 ZW 1016,8 34 37 0,0
20.08.2017 14:00:00 18,6 10,1 20,9 21,5 17,5 16,9 20 11 37 20 WZW 1017,0 57 30 0,0
20.08.2017 13:00:00 18,0 10,5 22,5 20,4 17,0 16,9 21 11 34 19 ZW 1017,1 47 26 0,0
20.08.2017 12:00:00 18,1 11,1 24,0 19,7 16,5 16,9 19 10 32 17 WZW 1017,1 37 44 0,0
20.08.2017 11:00:00 16,9 11,4 22,7 18,4 16,0 16,9 14 7 27 15 ZW 1017,2 50 58 0,0
20.08.2017 10:00:00 15,6 11,0 20,3 16,4 15,8 16,9 14 7 28 15 WZW 1017,1 30 58 0,0
20.08.2017 09:00:00 14,2 10,8 17,4 14,5 15,8 16,9 13 7 27 15 WZW 1017,3 24 60 0,0
20.08.2017 08:00:00 12,9 10,4 12,3 13,0 15,9 16,9 14 7 26 14 ZW 1017,2 40 60 0,0
20.08.2017 07:00:00 11,6 10,0 10,9 12,6 16,2 16,9 11 6 19 11 ZZW 1016,9 25 33 0,0
20.08.2017 06:00:00 11,1 9,5 9,6 12,7 16,5 16,9 11 6 18 10 ZZW 1016,6 27 0 0,0
20.08.2017 05:00:00 11,4 9,7 10,0 13,1 16,8 16,9 11 6 19 10 ZW 1016,4 27 0 0,0
20.08.2017 04:00:00 11,8 10,0 10,1 13,5 17,1 16,9 12 7 21 12 WZW 1016,2 27 0 0,0
20.08.2017 03:00:00 12,1 10,1 10,4 13,9 17,5 16,9 13 7 21 12 WZW 1016,3 28 0 0,0
20.08.2017 02:00:00 12,5 10,3 10,8 14,4 17,8 16,9 10 6 17 9 ZW 1015,9 26 0 0,0
20.08.2017 01:00:00 13,1 10,9 11,3 14,9 18,2 16,9 11 6 21 11 ZW 1016,0 24 0 0,0
20.08.2017 00:00:00 13,1 11,5 11,4 15,5 18,5 16,9 11 6 20 11 W 1016,0 15 0 0,0
19.08.2017 23:00:00 14,4 12,1 12,7 16,0 18,9 16,9 11 6 16 9 ZZW 1015,8 22 0 0,0
19.08.2017 22:00:00 13,9 11,6 11,6 16,7 19,2 16,9 9 5 13 7 ZW 1015,7 22 0 0,0
19.08.2017 21:00:00 13,9 12,3 11,7 17,8 19,5 16,9 6 4 14 8 ZW 1015,5 9 14 0,0
19.08.2017 20:00:00 15,7 12,8 14,9 19,2 19,6 16,9 9 5 16 9 ZZW 1014,7 23 57 0,0
19.08.2017 19:00:00 16,2 12,9 18,4 19,9 19,7 16,9 10 5 32 17 ZW 1014,6 21 17 0,4
19.08.2017 18:00:00 16,8 12,0 16,7 20,3 19,7 16,9 12 6 43 23 WZW 1014,6 32 14 0,2
19.08.2017 17:00:00 19,1 9,7 20,3 21,2 19,6 16,9 18 10 36 19 ZW 1014,0 49 16 0,0
19.08.2017 16:00:00 19,8 9,9 23,7 21,6 19,4 16,9 17 9 34 18 ZZW 1013,6 46 13 0,0
19.08.2017 15:00:00 19,3 10,8 22,0 22,2 19,1 16,9 16 9 38 20 ZW 1013,6 51 26 0,0
19.08.2017 14:00:00 18,5 10,3 23,5 20,7 18,8 16,9 17 9 36 20 ZW 1013,5 53 22 0,0
19.08.2017 13:00:00 17,8 10,7 20,6 20,9 18,5 16,9 21 11 35 19 WZW 1013,4 35 32 0,0
19.08.2017 12:00:00 17,0 11,5 18,6 20,2 18,3 16,9 23 12 37 20 WZW 1012,9 32 45 0,0
19.08.2017 11:00:00 16,2 11,8 17,9 18,8 18,1 16,9 19 10 37 20 WZW 1012,9 21 35 0,0
19.08.2017 10:00:00 16,0 11,8 18,5 18,3 18,0 16,9 19 10 36 19 ZW 1012,7 30 53 0,0
19.08.2017 09:00:00 15,5 12,5 16,5 17,4 18,1 16,9 19 10 31 17 ZW 1011,4 14 26 0,0
19.08.2017 08:00:00 15,3 13,4 15,0 16,4 18,2 16,9 16 9 27 15 WZW 1010,6 6 22 0,0
19.08.2017 07:00:00 14,8 13,4 14,0 16,2 18,5 16,9 17 9 34 19 WZW 1010,2 5 0 0,0
19.08.2017 06:00:00 14,8 13,7 13,8 16,4 18,7 16,9 14 8 24 13 WZW 1009,5 5 0 0,0
19.08.2017 05:00:00 15,3 14,2 14,5 16,8 19,0 16,9 15 8 28 15 WZW 1008,7 7 0 0,0
19.08.2017 04:00:00 15,4 14,4 14,6 17,1 19,3 16,9 16 9 25 14 WZW 1008,3 7 0 0,0
19.08.2017 03:00:00 15,8 14,5 15,1 17,7 19,5 16,9 13 7 25 14 WZW 1008,4 12 0 0,0
19.08.2017 02:00:00 16,2 14,7 15,6 18,2 19,7 16,9 20 11 30 16 W 1008,2 12 0 0,7
19.08.2017 01:00:00 16,9 15,9 16,6 18,7 19,9 16,9 19 10 26 14 W 1008,7 4,9 0 0,7
19.08.2017 00:00:00 17,1 16,4 16,9 19,0 20,2 16,9 12 6 16 9 W 1008,5 4,0 0 0,2
18.08.2017 23:00:00 17,0 16,3 16,7 19,3 20,4 16,9 9 5 12 6 W 1008,4 5 0 0,0
18.08.2017 22:00:00 16,7 16,1 16,3 19,5 20,7 16,9 4 2 7 4 Z 1008,9 2,9 0 0,0
18.08.2017 21:00:00 17,0 16,2 16,0 20,3 20,9 16,9 6 3 9 5 W 1009,3 3,7 0 0,0
18.08.2017 20:00:00 17,9 16,8 17,8 21,1 21,0 16,9 4 2 9 5 ZZW 1009,7 3,6 0 0,7
18.08.2017 19:00:00 18,6 17,4 18,6 21,7 21,1 16,9 3 2 10 5 ZW 1009,9 4,8 0 0,6
18.08.2017 18:00:00 18,7 17,1 18,4 22,6 21,2 16,9 10 6 20 11 Z 1010,5 13 0 0,4
18.08.2017 17:00:00 19,5 17,9 19,7 22,9 21,2 16,8 9 5 21 11 ZZW 1011,3 4,8 0 2,6
18.08.2017 16:00:00 20,7 17,2 19,7 23,9 21,0 16,8 10 5 21 11 Z 1011,8 4,7 0 0,1
18.08.2017 15:00:00 21,9 16,1 22,9 24,8 20,6 16,8 13 7 28 15 ZZW 1012,2 37 0 0,0
18.08.2017 14:00:00 22,4 17,5 26,0 25,3 20,1 16,8 8 5 23 12 Z 1012,3 16 23 0,0
18.08.2017 13:00:00 21,6 17,4 24,8 23,7 19,7 16,8 9 5 21 11 Z 1012,4 12 7 0,0
18.08.2017 12:00:00 20,7 17,0 23,1 22,6 19,4 16,8 8 5 25 14 ZZW 1013,2 10 4 0,0
18.08.2017 11:00:00 20,5 17,3 22,9 21,8 19,1 16,8 12 7 24 13 ZZW 1013,6 8 21 0,0
18.08.2017 10:00:00 18,8 16,5 19,5 20,6 18,9 16,8 12 7 23 13 ZZW 1013,6 5 0 0,0
18.08.2017 09:00:00 18,7 16,7 20,0 19,4 18,8 16,8 11 6 22 12 ZZW 1013,3 5 38 0,0
18.08.2017 08:00:00 17,8 16,5 17,9 18,3 18,9 16,8 11 6 23 12 ZW 1013,4 3,6 6 0,0
18.08.2017 07:00:00 17,2 16,4 17,0 17,6 19,1 16,8 11 6 18 10 ZW 1013,6 2,5 0 0,0
18.08.2017 06:00:00 16,5 15,7 15,7 17,4 19,3 16,8 10 5 16 9 ZZW 1013,2 2,0 0 0,0
18.08.2017 05:00:00 16,7 15,8 16,2 17,6 19,6 16,8 10 5 16 8 ZW 1013,1 2,5 0 0,0
18.08.2017 04:00:00 16,7 15,8 15,7 18,1 19,8 16,8 11 6 22 12 WZW 1013,1 3,1 0 0,0
18.08.2017 03:00:00 17,3 16,3 16,5 18,7 20,0 16,8 16 9 29 16 WZW 1013,2 4,2 0 0,0
18.08.2017 02:00:00 18,0 17,0 17,7 19,2 20,3 16,8 13 7 28 15 ZZW 1013,3 7 0 0,3
18.08.2017 01:00:00 17,2 16,5 17,1 19,4 20,6 16,8 7 4 22 12 Z 1013,4 3,3 0 5,2

tt = temperatuur
td = dauwpunt
tt 5cm = temperatuur 5cm
tt -5cm = temperatuur -5cm
tt -20cm = temperatuur -20cm
tt -100cm = temperatuur -100cm
ff = windsnelheid
fx = windstoten
dd = windrichting
ppp = luchtdruk
vv = zicht
sd = Zonneschijnduur
rr = neerslag

Weerstations in de omgeving